[[{"header":{"parameterUnit":"m.s-1","parameterCategory":1,"la1":30.2991,"la2":30.254,"lo1":-89.0895,"lo2":-89.0444,"dy":0.0017,"dx":0.0017,"nx":28,"ny":28,"refTime":"2024-12-10T03:00:00:Z","depth":0,"parameterNumber":2,"parameterNumberName":"U-component_of_WINDS"},"data":[0,0,0,0,0,0,0,0,0,0,0,0,0,0,0,0,0,0,0,0,0,0,0,0,0,0,0,0,0,0,0,0,0,0,0,0,0,0,0,0,0,0,0,0,0,0,0,0,0,0,0,0,0,0,0,0,0,0,3.7518,3.7517,0,3.7454,3.7453,3.7452,3.737,3.7369,3.7367,3.7366,3.7297,3.7296,3.7295,0,0,0,0,0,0,0,0,0,0,0,0,0,3.7568,3.7568,3.7518,3.7517,3.7516,3.7454,3.7453,3.7452,3.737,3.7368,3.7367,3.7365,3.7297,3.7296,3.7295,0,0,0,0,0,0,0,0,0,0,0,0,0,3.7529,3.7568,3.7518,3.7468,3.7463,3.7454,3.7453,3.7452,3.737,3.7368,3.7366,3.7365,3.7297,3.7296,3.7295,3.7329,0,0,3.7292,3.7292,0,0,0,0,0,0,0,0,3.7532,3.7528,3.7476,3.7471,3.7466,3.7418,3.7445,3.7411,3.7371,3.7405,3.7366,3.7364,3.7338,3.7334,3.7326,3.7326,3.7323,3.7292,3.7292,3.7291,3.7291,0,0,0,0,0,0,0,3.7535,3.753,3.7492,3.7475,3.7469,3.7448,3.7441,3.7438,3.7384,3.7402,3.7396,3.739,3.7335,3.7327,3.7324,3.7322,3.7292,3.7292,3.7291,3.7291,3.7351,3.7353,0,0,0,0,0,0,3.7545,3.7533,3.7494,3.749,3.7495,3.7449,3.744,3.7435,3.7383,3.7374,3.7392,3.7386,3.733,3.7325,3.7321,3.736,3.7291,3.7291,3.729,3.7349,3.7352,3.7354,0,0,0,0,0,0,3.7546,3.7542,3.7497,3.751,3.7503,3.745,3.7445,3.7435,3.7427,3.7375,3.7365,3.7394,3.7328,3.7322,3.7329,3.7357,3.729,3.7289,3.7346,3.735,3.7353,3.7438,0,0,0,0,0,0,3.7548,3.7543,3.7556,3.7511,3.7502,3.7506,3.7447,3.7435,3.7426,3.7418,3.7375,3.7365,3.7326,3.7331,3.7328,3.7354,3.7289,3.7344,3.7348,3.7352,3.7432,3.7444,3.7453,0,0,0,0,0,3.755,3.758,3.7557,3.7553,3.7517,3.7508,3.7503,3.7458,3.7428,3.7441,3.7408,3.7367,3.7354,3.7332,3.7328,3.7355,3.7342,3.7347,3.7351,3.7428,3.7441,3.7453,0,0,0,0,0,0,3.7627,3.7573,3.7547,3.7563,3.7541,3.7494,3.7508,3.7473,3.7458,3.7451,3.7395,3.7386,3.74,3.7378,3.7354,3.7387,3.7342,3.7346,3.7401,3.7414,3.7424,3.743,3.7288,0,0,0,0,0,3.7647,3.7645,3.7597,3.7617,3.7607,3.756,3.7554,3.7522,3.7497,3.7486,3.7454,3.743,3.7421,3.7416,3.7404,3.7429,3.742,3.7445,3.7456,3.7465,3.7469,3.7484,3.7496,3.737,3.737,3.737,0,0,3.7685,3.7656,3.7658,3.7632,3.7611,3.7611,3.7552,3.7553,3.7553,3.7486,3.7492,3.7468,3.7437,3.7454,3.746,3.7436,3.7503,3.7471,3.7478,3.7478,3.7491,3.7503,3.7513,3.7373,3.7373,3.7372,0,0,3.7757,3.7734,3.7749,3.773,3.7701,3.767,3.7674,3.7633,3.7616,3.7621,3.7572,3.757,3.7554,3.7536,3.7525,3.7595,3.7558,3.7593,3.7647,3.7663,3.7673,3.7681,3.7709,3.7719,3.7597,3.7598,3.7598,0,3.7809,3.7807,3.7761,3.7767,3.7758,3.77,3.7716,3.7699,3.7667,3.7662,3.7636,3.7619,3.7594,3.7608,3.7626,3.7617,3.7622,3.7597,3.7675,3.7683,3.7691,3.7717,3.7727,3.7602,3.7602,3.7601,3.7601,0,3.7874,3.7874,3.789,3.7863,3.7856,3.7866,3.7822,3.7821,3.779,3.7762,3.777,3.7739,3.7723,3.7723,3.7692,3.7734,3.772,3.7686,3.7639,3.7708,3.7732,3.7741,3.7609,3.7607,3.7606,3.7605,0,0,3.7989,3.7941,3.7947,3.7936,3.7901,3.79,3.791,3.7895,3.7896,3.7877,3.7884,3.7875,3.7844,3.7832,3.7798,3.7812,3.7874,3.7776,3.7774,3.7797,3.7921,3.7949,3.7961,3.7848,3.785,3.7851,3.7925,0,3.8056,3.807,3.803,3.8054,3.8056,3.8003,3.8011,3.7991,3.7966,3.7964,3.7935,3.7931,3.7889,3.7882,3.7893,3.7864,3.7898,3.7858,3.7856,3.7857,3.7867,3.7973,3.8001,3.8071,3.7933,3.7935,3.7936,0,3.8134,3.8122,3.8148,3.8116,3.8114,3.8123,3.8109,3.8106,3.8084,3.8065,3.8054,3.8016,3.8024,3.798,3.7992,3.7966,3.7963,3.7949,3.7951,3.7949,3.7901,3.7976,3.8092,3.8104,3.7949,3.7948,3.7947,0,3.8219,3.8209,3.8224,3.8216,3.8178,3.8186,3.817,3.8146,3.8141,3.8129,3.8126,3.8114,3.8107,3.81,3.8061,3.8032,3.8078,3.803,3.8064,3.8065,3.8076,3.8076,3.8196,3.8072,3.8072,3.8072,3.8072,0,3.8298,3.8316,3.8263,3.8272,3.8292,3.8247,3.8267,3.8246,3.8226,3.8231,3.8183,3.8189,3.8137,3.8137,3.8106,3.8123,3.8119,3.8105,3.8097,3.8111,3.8113,3.8108,3.8103,3.8075,3.8074,3.8074,3.8073,0,3.8396,3.8361,3.8374,3.8339,3.8331,3.8347,3.8316,3.8324,3.8298,3.8305,3.8304,3.8263,3.8261,3.8222,3.8211,3.8191,3.822,3.8202,3.8229,3.8223,3.8261,3.8259,3.8383,3.8398,3.8264,3.8265,3.8266,0,3.8449,3.8463,3.843,3.8431,3.8419,3.842,3.8416,3.8373,3.8372,3.835,3.8361,3.8356,3.8349,3.835,3.8319,3.8311,3.8294,3.8338,3.8292,3.8306,3.8297,3.8298,3.83,3.8348,3.8349,3.8351,3.8352,0,3.8548,3.8532,3.8528,3.8521,3.8519,3.851,3.8498,3.8501,3.8455,3.8455,3.8454,3.845,3.8442,3.8438,3.8426,3.841,3.8374,3.8367,3.8375,3.8389,3.8405,3.84,3.8257,3.8364,3.8363,3.8362,3.8361,3.8361,3.8627,3.8638,3.8618,3.8618,3.8605,3.8596,3.8603,3.858,3.8579,3.857,3.8544,3.8549,3.8529,3.8509,3.8497,3.85,3.8478,3.8489,3.8492,3.8496,3.8504,3.8404,3.8497,3.8497,3.8497,3.8496,3.8496,0,3.8726,3.8712,3.8712,3.8699,3.8699,3.8667,3.8654,3.8656,3.8661,3.8646,3.8643,3.8644,3.8641,3.8612,3.8607,3.8615,3.8599,3.8615,3.8615,3.8613,3.8523,3.8518,3.8629,3.8629,3.8629,3.8629,3.8629,3.8629,3.8777,3.8796,3.8777,3.879,3.8775,3.878,3.8776,3.8768,3.8757,3.8761,3.876,3.8741,3.8722,3.8715,3.8712,3.8704,3.8705,3.8728,3.8714,3.8631,3.8618,3.8606,3.8601,3.8728,3.8728,3.8804,3.8804,3.8805]},{"header":{"parameterUnit":"m.s-1","parameterCategory":1,"la1":30.2991,"la2":30.254,"lo1":-89.0895,"lo2":-89.0444,"dy":0.0017,"dx":0.0017,"nx":28,"ny":28,"refTime":"2024-12-10T03:00:00:Z","depth":0,"parameterNumber":3,"parameterNumberName":"V-component_of_WINDS"},"data":[0,0,0,0,0,0,0,0,0,0,0,0,0,0,0,0,0,0,0,0,0,0,0,0,0,0,0,0,0,0,0,0,0,0,0,0,0,0,0,0,0,0,0,0,0,0,0,0,0,0,0,0,0,0,0,0,0,0,-3.3822,-3.3821,0,-3.3702,-3.3701,-3.37,-3.3672,-3.3673,-3.3673,-3.3674,-3.3551,-3.3547,-3.3543,0,0,0,0,0,0,0,0,0,0,0,0,0,-3.403,-3.4026,-3.3823,-3.3821,-3.382,-3.3703,-3.3701,-3.3699,-3.3672,-3.3673,-3.3674,-3.3675,-3.3552,-3.3547,-3.3542,0,0,0,0,0,0,0,0,0,0,0,0,0,-3.3928,-3.4025,-3.3823,-3.3792,-3.3788,-3.3703,-3.3701,-3.3699,-3.3671,-3.3673,-3.3674,-3.3675,-3.3554,-3.3548,-3.3542,-3.3479,0,0,-3.3523,-3.3521,0,0,0,0,0,0,0,0,-3.3934,-3.392,-3.3798,-3.3794,-3.3789,-3.3703,-3.3729,-3.3625,-3.3671,-3.3716,-3.3674,-3.3676,-3.3601,-3.3591,-3.3565,-3.3474,-3.3468,-3.3523,-3.3519,-3.3516,-3.3515,0,0,0,0,0,0,0,-3.3941,-3.3925,-3.3775,-3.3796,-3.3791,-3.3784,-3.3771,-3.3709,-3.3653,-3.3712,-3.3709,-3.3696,-3.3598,-3.3571,-3.3562,-3.3467,-3.3523,-3.3517,-3.3514,-3.3511,-3.3322,-3.332,0,0,0,0,0,0,-3.3953,-3.3931,-3.3779,-3.3771,-3.3866,-3.378,-3.3765,-3.373,-3.3653,-3.3643,-3.3695,-3.3695,-3.3581,-3.3569,-3.3558,-3.3482,-3.3516,-3.3511,-3.3507,-3.3323,-3.3321,-3.332,0,0,0,0,0,0,-3.3958,-3.394,-3.3784,-3.3851,-3.383,-3.3775,-3.3735,-3.3727,-3.3699,-3.364,-3.363,-3.3677,-3.3582,-3.3566,-3.35,-3.3477,-3.3508,-3.3502,-3.3325,-3.3322,-3.332,-3.3328,0,0,0,0,0,0,-3.3964,-3.3941,-3.3916,-3.385,-3.3827,-3.3727,-3.3734,-3.3723,-3.3689,-3.3688,-3.3621,-3.3611,-3.3581,-3.3509,-3.3494,-3.3469,-3.3498,-3.3326,-3.3324,-3.3321,-3.333,-3.3327,-3.3324,0,0,0,0,0,-3.3971,-3.3922,-3.3915,-3.3897,-3.3794,-3.3726,-3.3712,-3.3679,-3.3687,-3.3662,-3.3625,-3.3613,-3.3482,-3.3503,-3.3485,-3.3458,-3.3328,-3.3324,-3.3321,-3.3331,-3.3327,-3.3324,0,0,0,0,0,0,-3.3986,-3.3913,-3.3904,-3.3833,-3.3786,-3.3721,-3.3688,-3.3676,-3.3625,-3.3626,-3.3587,-3.3572,-3.3509,-3.3477,-3.3501,-3.3396,-3.3405,-3.3399,-3.3419,-3.3415,-3.3412,-3.3421,-3.3493,0,0,0,0,0,-3.3981,-3.3931,-3.387,-3.3813,-3.379,-3.3744,-3.3712,-3.3691,-3.3641,-3.3621,-3.3578,-3.353,-3.3478,-3.3445,-3.3394,-3.3326,-3.3312,-3.3299,-3.3296,-3.3294,-3.3288,-3.3253,-3.3247,-3.3309,-3.3309,-3.331,0,0,-3.397,-3.3924,-3.3895,-3.3815,-3.3776,-3.3727,-3.3727,-3.3673,-3.3636,-3.3612,-3.3547,-3.3515,-3.3459,-3.3393,-3.3361,-3.3364,-3.3269,-3.329,-3.3289,-3.3284,-3.3249,-3.3243,-3.3238,-3.3307,-3.3308,-3.3308,0,0,-3.3925,-3.3885,-3.3834,-3.3796,-3.3738,-3.3707,-3.3696,-3.3633,-3.3611,-3.3546,-3.3528,-3.3484,-3.3395,-3.3356,-3.3325,-3.327,-3.3259,-3.3255,-3.3239,-3.3205,-3.3201,-3.3196,-3.3178,-3.3172,-3.325,-3.325,-3.325,0,-3.3918,-3.3842,-3.3809,-3.3757,-3.3724,-3.3702,-3.3651,-3.3615,-3.3543,-3.3521,-3.3526,-3.3416,-3.3377,-3.3302,-3.3289,-3.3264,-3.3251,-3.3262,-3.3204,-3.3199,-3.3194,-3.3177,-3.317,-3.325,-3.325,-3.325,-3.325,0,-3.3838,-3.3786,-3.3752,-3.3685,-3.3647,-3.3596,-3.3557,-3.3523,-3.3506,-3.3476,-3.3412,-3.3364,-3.3305,-3.3286,-3.3268,-3.3209,-3.3213,-3.3212,-3.322,-3.3189,-3.3172,-3.3165,-3.325,-3.325,-3.325,-3.325,0,0,-3.3796,-3.3714,-3.3702,-3.3672,-3.3608,-3.3568,-3.3517,-3.3459,-3.3432,-3.3385,-3.3342,-3.3269,-3.3268,-3.3233,-3.3212,-3.3182,-3.3144,-3.3184,-3.3182,-3.3179,-3.3079,-3.3081,-3.3074,-3.3136,-3.3135,-3.3134,-3.3084,0,-3.3744,-3.3652,-3.3622,-3.3546,-3.3499,-3.3479,-3.3436,-3.3393,-3.3364,-3.3321,-3.3289,-3.3239,-3.3241,-3.322,-3.3189,-3.3155,-3.3123,-3.3158,-3.3097,-3.3096,-3.3112,-3.3064,-3.3065,-3.3021,-3.3077,-3.3076,-3.3075,0,-3.3669,-3.3622,-3.3541,-3.3487,-3.3466,-3.3427,-3.3373,-3.3331,-3.3283,-3.3265,-3.3228,-3.321,-3.3158,-3.3171,-3.31,-3.3124,-3.3098,-3.3078,-3.3076,-3.3068,-3.3083,-3.3057,-3.3005,-3.2999,-3.3064,-3.3065,-3.3066,0,-3.3648,-3.3564,-3.3506,-3.3481,-3.3415,-3.3389,-3.336,-3.3313,-3.3282,-3.3236,-3.3215,-3.3164,-3.3135,-3.3097,-3.3066,-3.3078,-3.2999,-3.3008,-3.2983,-3.2984,-3.2966,-3.2968,-3.2911,-3.2949,-3.2949,-3.295,-3.295,0,-3.3593,-3.3544,-3.3496,-3.346,-3.3407,-3.3375,-3.3323,-3.3293,-3.3253,-3.3212,-3.3192,-3.3154,-3.3116,-3.3073,-3.3049,-3.2996,-3.2983,-3.2968,-3.2962,-3.2969,-3.2971,-3.2951,-3.2954,-3.2948,-3.2948,-3.2949,-3.2949,0,-3.3559,-3.3525,-3.346,-3.3405,-3.339,-3.3353,-3.3305,-3.3271,-3.3243,-3.3192,-3.3178,-3.3135,-3.3084,-3.305,-3.2985,-3.2969,-3.2912,-3.2906,-3.2928,-3.2925,-3.2903,-3.2906,-3.2831,-3.282,-3.2866,-3.2865,-3.2865,0,-3.3526,-3.3489,-3.343,-3.3402,-3.3373,-3.3327,-3.3296,-3.3264,-3.3232,-3.3177,-3.3149,-3.3098,-3.3055,-3.2976,-3.2939,-3.2891,-3.2884,-3.2862,-3.2877,-3.2887,-3.2885,-3.2888,-3.2885,-3.2859,-3.2859,-3.2858,-3.2858,0,-3.3471,-3.3457,-3.3412,-3.3362,-3.3325,-3.3284,-3.3243,-3.3221,-3.3183,-3.3149,-3.3097,-3.3064,-3.3,-3.295,-3.2899,-3.287,-3.2858,-3.2854,-3.2846,-3.2853,-3.2868,-3.2861,-3.2922,-3.2856,-3.2856,-3.2856,-3.2856,-3.2856,-3.3437,-3.3404,-3.3359,-3.331,-3.3277,-3.324,-3.3205,-3.3175,-3.3131,-3.3076,-3.3061,-3.3008,-3.2965,-3.2894,-3.2866,-3.2825,-3.2827,-3.2815,-3.2812,-3.281,-3.2811,-3.2875,-3.2816,-3.2816,-3.2816,-3.2816,-3.2816,0,-3.3382,-3.3353,-3.3309,-3.3253,-3.3216,-3.3209,-3.3164,-3.3134,-3.3088,-3.3048,-3.3007,-3.295,-3.2903,-3.2864,-3.2815,-3.279,-3.2784,-3.2779,-3.278,-3.2775,-3.2811,-3.2823,-3.2785,-3.2785,-3.2785,-3.2785,-3.2785,-3.2785,-3.3349,-3.3294,-3.3275,-3.3204,-3.3175,-3.3124,-3.3099,-3.3066,-3.3034,-3.2972,-3.2932,-3.2908,-3.2869,-3.2818,-3.2775,-3.2765,-3.2749,-3.2745,-3.2734,-3.2768,-3.2772,-3.2775,-3.2787,-3.2741,-3.2741,-3.2701,-3.2701,-3.2701]}]]